Tracking 25963 objects as of 12-Aug-2022
HD Live streaming from Space Station
objects crossing your sky now

SL-14 R/B

Track SL-14 R/B now!
10-day predictions


NORAD ID: 27061
Int'l Code: 2001-058G
Perigee: 1,421.0 km
Apogee: 1,489.4 km
Inclination: 82.5 °
Period: 114.8 minutes
Semi major axis: 7826 km
RCS: 6.0466 m2 (large)
Launch date: December 28, 2001
Source: Commonwealth of Independent States (former USSR) (CIS)
Launch site: PLESETSK MISSILE AND SPACE COMPLEX (PKMTR)

Note: This is a ROCKET BODY
aabbcc
Your satellite tracking list
Your tracking list is empty




NASA's NSSDC Master Catalog

Two Line Element Set (TLE):
1 27061U 01058G   22223.71577086  .00000025  00000-0  93587-4 0  9995
2 27061  82.5426 101.4003 0043686   8.3642  45.7018 12.53938021943920
Source of the keplerian elements: AFSPC